Location: El Castaño
(10.3135°N, 67.5574°W)
Time: 04:41:31
(UTC+00:00)

Okean 3 Rocket - Pass Details

Date: 13 June 2024
Orbit: 612 x 641 km, 82.5° (Epoch: 19 July)

Event Time Altitude Azimuth Distance (km) Brightness Sun altitude
Rises 23:29:39 0° 350° (N) 2,879 7.5 -9.2°
Reaches altitude 10° 23:31:53 10° 348° (NNW) 1,978 6.7 -9.7°
Maximum altitude 23:36:12 63° 267° (W) 694 4.1 -10.6°
Drops below altitude 10° 23:40:35 10° 186° (S) 1,997 6.0 -11.6°
Sets 23:42:50 0° 182° (S) 2,909 6.8 -12.1°
